Location: Newark
(3.0500°N, 36.0167°E)
Time: 20:10:18
(UTC+00:00)

deb Explorer IX - All Passes

Search period start: 18 August 2019 00:00
Search period end: 28 August 2019 00:00
Orbit: 539 x 1111 km, 38.8° (Epoch: 16 August)

Date Brightness Start Highest point End Pass type
(mag) Time Alt. Az. Time Alt. Az. Time Alt. Az.
18 Aug - 07:17:11 10° S 07:20:22 17° SE 07:23:50 10° E daylight
18 Aug - 09:01:51 10° WSW 09:07:08 67° NW 09:13:23 10° NE daylight
18 Aug - 10:52:17 10° WNW 10:55:01 13° NNW 10:57:56 10° N daylight
18 Aug - 18:12:00 10° N 18:16:16 17° NNE 18:20:14 10° ENE visible
18 Aug - 19:57:28 10° NW 20:04:03 85° NE 20:09:36 10° SE visible
18 Aug - 21:48:01 10° WSW 21:50:50 14° SW 21:53:28 10° SSW night (unlit)
19 Aug - 06:55:20 10° S 06:58:24 17° SE 07:01:44 10° E daylight
19 Aug - 08:40:01 10° WSW 08:45:08 64° NW 08:51:11 10° NE daylight
19 Aug - 10:30:45 10° NW 10:33:01 12° NNW 10:35:23 10° N daylight
19 Aug - 17:49:39 10° N 17:54:13 18° NNE 17:58:28 10° ENE visible
19 Aug - 19:35:16 10° NW 19:42:00 88° NE 19:47:44 10° SE visible
19 Aug - 21:25:53 10° WSW 21:28:50 14° SW 21:31:36 10° SSW night (unlit)
20 Aug - 06:33:28 10° S 06:36:26 16° SE 06:39:39 10° E daylight
20 Aug - 08:18:12 10° WSW 08:23:08 61° NW 08:28:59 10° NE daylight
20 Aug - 10:09:23 10° NW 10:11:01 11° NNW 10:12:42 10° NNW daylight
20 Aug - 17:27:20 10° N 17:32:09 19° NE 17:36:40 10° ENE visible
20 Aug - 19:13:03 10° NW 19:19:56 90° W 19:25:51 10° SE visible
20 Aug - 21:03:44 10° WSW 21:06:50 14° SW 21:09:44 10° SSW night (unlit)
21 Aug - 06:11:37 10° S 06:14:29 16° SE 06:17:35 10° E daylight
21 Aug - 07:56:24 10° WSW 08:01:10 58° NW 08:06:48 10° NE daylight
21 Aug - 09:48:36 10° NW 09:49:01 10° NNW 09:49:27 10° NNW daylight
21 Aug - 17:05:01 10° N 17:10:04 20° NE 17:14:49 10° E visible
21 Aug - 18:50:50 10° NW 18:57:51 88° SW 19:03:56 10° SE visible
21 Aug - 20:41:34 10° WSW 20:44:48 14° SW 20:47:50 10° SSW night (unlit)
22 Aug - 05:49:44 10° S 05:52:32 16° SE 05:55:33 10° E daylight
22 Aug - 07:34:35 10° WSW 07:39:11 55° NW 07:44:37 10° NE daylight
22 Aug - 16:42:44 10° N 16:47:58 21° NE 16:52:56 10° E visible
22 Aug - 18:28:37 10° NW 18:35:44 86° SW 18:42:00 10° SE visible
22 Aug - 20:19:24 10° WSW 20:22:46 15° SW 20:25:55 10° S night (unlit)
23 Aug - 05:27:51 10° S 05:30:35 16° SE 05:33:31 10° E daylight
23 Aug - 07:12:47 10° WSW 07:17:14 51° NW 07:22:26 10° NE daylight
23 Aug - 16:20:28 10° NNW 16:25:52 22° NE 16:31:01 10° E visible
23 Aug - 18:06:24 10° NW 18:13:37 84° SW 18:20:02 10° SE visible
23 Aug - 19:57:14 10° WSW 20:00:43 15° SW 20:03:58 10° S visible
24 Aug - 05:05:57 10° S 05:08:39 16° SE 05:11:31 10° E daylight
24 Aug - 06:50:59 10° WSW 06:55:18 48° NW 07:00:17 10° NE daylight
24 Aug - 15:58:13 10° NNW 16:03:44 23° NE 16:09:05 10° E visible
24 Aug - 17:44:11 10° NW 17:51:29 82° SW 17:58:03 10° SE visible
24 Aug - 19:35:04 10° WSW 19:38:38 15° SW 19:42:00 10° S visible
25 Aug - 04:44:02 10° S 04:46:43 16° SE 04:49:33 10° E daylight
25 Aug - 06:29:10 10° WSW 06:33:21 45° NW 06:38:08 10° NE daylight
25 Aug - 15:35:58 10° NNW 15:41:36 23° NE 15:47:05 10° E daylight
25 Aug - 17:22:00 10° NW 17:29:20 80° SW 17:36:03 10° SE visible
25 Aug - 19:12:54 10° WSW 19:16:33 15° SW 19:20:01 10° S visible
26 Aug - 04:22:06 10° S 04:24:47 17° SE 04:27:35 10° E daylight
26 Aug - 06:07:21 10° WSW 06:11:25 42° NW 06:16:00 10° NNE daylight
26 Aug - 15:13:46 10° NNW 15:19:27 24° NE 15:25:05 10° E daylight
26 Aug - 16:59:47 10° NW 17:07:10 78° SW 17:14:01 10° SE visible
26 Aug - 18:50:44 10° WSW 18:54:27 15° SW 18:58:00 10° S visible
27 Aug - 04:00:08 10° S 04:02:51 17° SE 04:05:40 10° E daylight
27 Aug - 05:45:33 10° WSW 05:49:29 40° NW 05:53:53 10° NNE daylight
27 Aug - 14:51:34 10° NNW 14:57:19 25° NE 15:03:02 10° E daylight
27 Aug - 16:37:36 10° NW 16:44:59 77° SW 16:51:58 10° SE visible
27 Aug - 18:28:35 10° WSW 18:32:20 15° SW 18:35:57 10° S visible
